Overview Statistics Trail Chart Weather Telemetry Raw packets
 

This is the latest recevied weather packets stored in our database for station/object K1RFS. If no packets are shown the sender has not sent any weather packets the latest 10 day(s).

<< 10 11 12 13 14 15 16 >>
Time Temp. Humidity Pressure Rain* Wind** Luminosity Snow
1788622630 23.33° C 33% 1003.8 hPa 0 mm - 26 W/m² -
1788622326 23.33° C 23% 1003.9 hPa 0 mm - 26 W/m² -
1788622021 23.33° C 23% 1004 hPa 0 mm - 26 W/m² -
1788621715 23.33° C 32% 1003.9 hPa 0 mm - 25 W/m² -
1788621410 22.78° C 30% 1004 hPa 0 mm - 25 W/m² -
1788621106 22.78° C 25% 1004 hPa 0 mm - 25 W/m² -
1788620801 22.78° C 25% 1004 hPa 0 mm - 24 W/m² -
1788620499 22.78° C 25% 1003.9 hPa 0 mm - 24 W/m² -
1788620198 22.22° C 26% 1003.8 hPa 0 mm - 24 W/m² -
1788619897 21.67° C 26% 1003.7 hPa 0 mm - 23 W/m² -
1788619592 21.67° C 28% 1004 hPa 0 mm - 23 W/m² -
1788619291 21.67° C 27% 1003.6 hPa 0 mm - 22 W/m² -
1788618995 21.11° C 27% 1003.7 hPa 0 mm - 22 W/m² -
1788618680 21.11° C 26% 1003.4 hPa 0 mm - 21 W/m² -
1788618379 21.11° C 27% 1003.8 hPa 0 mm - 21 W/m² -
1788618079 21.11° C 27% 1003.7 hPa 0 mm - 20 W/m² -
1788617779 21.11° C 27% 1003.7 hPa 0 mm - 20 W/m² -
1788617476 21.11° C 27% 1003.6 hPa 0 mm - 19 W/m² -
1788617176 20.56° C 28% 1003.8 hPa 0 mm - 19 W/m² -
1788616875 20.56° C 29% 1003.4 hPa 0 mm - 18 W/m² -
1788616570 20° C 29% 1003.4 hPa 0 mm - 17 W/m² -
1788616265 18.89° C 29% 1003.6 hPa 0 mm - 16 W/m² -
1788615960 18.89° C 29% 1003.3 hPa 0 mm - 15 W/m² -
1788615669 18.33° C 29% 1003.3 hPa 0 mm - 14 W/m² -
1788615355 17.78° C 30% 1003.1 hPa 0 mm - 13 W/m² -

* Rain latest hour (hover to see other rain measurements)
** Current wind speed in m/s (hover to see current wind gust speed)